Simultaneous Nadir Overpasses (SNOs) Predictions

Prediction of SNOs between METOP-C and LANDSAT-8 Satellite Orbit:

Table of predicted SNOs for the next 14.0 days since TLE Epoch: 12/18/2021
Index Date (METOP-C) Time (METOP-C) Lat,Lon (METOP-C) SZA (METOP-C ) Date (LANDSAT-8) Time (LANDSAT-8) Lat,Lon (LANDSAT-8) SZA (LANDSAT-8 ) Distance(km) Time Diff (sec)
1 12/18/2021 19:21:57 -81.10, 109.05 73.53 12/18/2021 19:22:30 -81.10, 108.88 73.54 2.94 33
2 12/18/2021 20:12:38 81.11, -83.35 106.51 12/18/2021 20:11:56 81.10, -83.40 106.48 1.10 42
3 12/21/2021 14:56:22 -81.08, 174.97 73.59 12/21/2021 14:56:45 -81.09, 175.14 73.56 3.10 23
4 12/21/2021 15:47:01 81.12, -16.69 106.54 12/21/2021 15:46:10 81.11, -16.80 106.50 2.04 51
5 12/24/2021 10:30:44 -81.09,-118.39 73.63 12/24/2021 10:30:58 -81.10,-118.29 73.61 1.95 14
6 12/24/2021 11:21:24 81.11, 49.57 106.45 12/24/2021 11:20:23 81.12, 49.74 106.45 3.25 61
7 12/27/2021 06:05:07 -81.10, -51.78 73.73 12/27/2021 06:05:12 -81.10, -51.77 73.72 0.44 5
8 12/27/2021 06:55:47 81.12, 116.16 106.35 12/27/2021 06:54:37 81.13, 116.24 106.33 1.49 70
9 12/30/2021 00:48:52 81.08,-153.28 106.02 12/30/2021 00:50:00 81.08,-153.34 106.04 0.96 68



Historial Predications of SNOs between METOP-C and LANDSAT-8
